Waarnemingen

Advertentie
Mijn weer
South Uist Range, Groot Brittannië (3023): temperatuur & dauwpunt: 16.10.2017 05:00:00 - 22.10.2017 05:00:00 (BST)South Uist Range, Groot Brittannië (3023): temperatuur -20cm & temperatuur -100cm: 16.10.2017 05:00:00 - 22.10.2017 05:00:00 (BST)South Uist Range, Groot Brittannië (3023): windsnelheid & windstoten: 16.10.2017 05:00:00 - 22.10.2017 05:00:00 (BST)South Uist Range, Groot Brittannië (3023): windrichting: 16.10.2017 05:00:00 - 22.10.2017 05:00:00 (BST)South Uist Range, Groot Brittannië (3023): luchtdruk: 16.10.2017 05:00:00 - 22.10.2017 05:00:00 (BST)South Uist Range, Groot Brittannië (3023): zicht: 16.10.2017 05:00:00 - 22.10.2017 05:00:00 (BST)South Uist Range, Groot Brittannië (3023): neerslag: 16.10.2017 05:00:00 - 22.10.2017 05:00:00 (BST)
Datum & Tijd tt [°C] td [°C] tt -20cm [°C] tt -100cm [°C] ff [km/u] ff [kn] fx [km/u] fx [kn] dd ppp [hPa] vv [km] rr [mm]
22.10.2017 05:00:00 11,6 10,0 - - 21 11 - - NW 999,2 17 0,2
22.10.2017 04:00:00 11,5 10,0 - - 22 12 - - NW 998,1 20 0,0
22.10.2017 03:00:00 11,3 9,8 - - 22 12 - - NW 997,4 22 0,0
22.10.2017 02:00:00 11,2 10,0 - - 22 12 - - NW 996,6 22 0,0
22.10.2017 01:00:00 11,5 10,0 - - 29 16 - - NW 995,7 24 0,0
22.10.2017 00:00:00 11,8 10,2 - - 29 16 - - NW 994,8 22 -
21.10.2017 23:00:00 12,0 10,7 - - 24 13 - - NW 993,9 18 0,0
21.10.2017 22:00:00 11,8 11,0 - - 15 8 - - NNW 993,0 20 0,0
21.10.2017 21:00:00 11,8 10,8 - - 16 9 - - NNW 992,1 22 -
21.10.2017 20:00:00 11,5 10,1 - - 16 9 - - NNW 991,3 25 0,0
21.10.2017 19:00:00 11,5 10,1 - - 11 6 - - NNW 990,3 25 0,0
21.10.2017 18:00:00 11,6 10,2 - - 4 2 - - NNO 989,5 24 0,6
21.10.2017 17:00:00 12,3 10,5 - - 13 7 - - NNO 989,0 5 0,0
21.10.2017 16:00:00 13,4 9,9 - - 4 2 - - ONO 988,5 30 0,0
21.10.2017 15:00:00 13,6 10,1 - - 11 6 - - OZO 988,2 27 0,0
21.10.2017 14:00:00 12,1 10,0 - - 15 8 - - O 987,8 13 0,2
21.10.2017 13:00:00 12,4 10,2 - - 13 7 - - OZO 987,8 22 0,0
21.10.2017 12:00:00 12,2 9,9 - - 18 10 - - O 987,5 27 0,0
21.10.2017 11:00:00 12,0 10,6 - - 22 12 - - OZO 987,3 16 0,0
21.10.2017 10:00:00 12,2 9,5 11,2 11,7 22 12 - - OZO 987,1 22 0,0
21.10.2017 09:00:00 12,1 9,8 - - 28 15 - - OZO 986,8 21 0,0
21.10.2017 08:00:00 12,0 9,8 - - 29 16 - - OZO 986,5 21 0,0
21.10.2017 07:00:00 11,4 9,4 - - 28 15 46 25 OZO 986,8 24 -
21.10.2017 06:00:00 11,8 9,3 - - 35 19 57 31 ZO 986,8 26 -
21.10.2017 05:00:00 11,7 9,5 - - 35 19 52 28 ZO 987,3 23 -
21.10.2017 04:00:00 11,1 9,1 - - 35 19 52 28 ZO 987,6 23 -
21.10.2017 03:00:00 10,0 9,4 - - 35 19 55 30 OZO 988,7 3,5 -
21.10.2017 02:00:00 9,9 9,2 - - 37 20 57 31 OZO 989,2 6 -
21.10.2017 01:00:00 9,7 8,1 - - 46 25 67 36 OZO 990,4 9 -
21.10.2017 00:00:00 9,9 8,5 - - 42 23 55 30 OZO 991,4 8 -
20.10.2017 23:00:00 9,7 6,8 - - 26 14 55 30 ZO 992,8 16 -
20.10.2017 22:00:00 11,2 8,5 - - 35 19 50 27 ZZO 993,9 24 -
20.10.2017 21:00:00 11,0 9,4 - - 31 17 48 26 ZZO 994,6 5 -
20.10.2017 20:00:00 11,7 9,1 - - 37 20 54 29 ZZO 995,3 19 0,0
20.10.2017 19:00:00 10,7 10,3 - - 18 10 - - ZO 996,1 4,8 0,0
20.10.2017 18:00:00 10,6 10,2 - - 21 11 - - OZO 996,9 16 0,2
20.10.2017 17:00:00 10,8 9,6 - - 22 12 - - OZO 997,9 25 0,0
20.10.2017 16:00:00 11,6 7,9 - - 16 9 - - O 998,6 27 0,0
20.10.2017 15:00:00 11,6 7,0 - - 15 8 - - O 999,2 30 0,0
20.10.2017 14:00:00 11,6 7,8 - - 11 6 - - NO 999,9 25 0,0
20.10.2017 13:00:00 11,2 7,5 - - 11 6 - - NO 1000,0 24 0,0
20.10.2017 12:00:00 11,6 7,3 - - 15 8 - - NNO 1000,2 26 0,0
20.10.2017 11:00:00 10,5 7,6 - - 13 7 - - N 1000,2 24 0,0
20.10.2017 10:00:00 9,7 7,4 11,4 11,7 16 9 - - N 1000,2 25 0,0
20.10.2017 09:00:00 10,4 7,2 - - 18 10 - - NNW 999,8 23 0,0
20.10.2017 08:00:00 10,4 8,0 - - 24 13 - - NNW 998,6 22 0,0
20.10.2017 07:00:00 10,4 7,9 - - 31 17 - - NNW 998,1 23 0,0
20.10.2017 06:00:00 10,4 8,7 - - 31 17 - - NNW 997,4 16 0,0
20.10.2017 05:00:00 10,1 9,5 - - 24 13 - - NNW 996,9 26 0,2
20.10.2017 04:00:00 10,2 9,8 - - 28 15 - - NNW 996,8 7 0,0
20.10.2017 03:00:00 10,2 9,9 - - 31 17 - - NNW 996,3 3,8 0,4
20.10.2017 02:00:00 10,4 10,1 - - 28 15 - - NNW 995,8 2,5 0,4
20.10.2017 01:00:00 10,7 10,4 - - 8 4 - - NNW 995,8 30 0,2
20.10.2017 00:00:00 10,7 10,2 - - 15 8 - - NW 995,7 5 0,6
19.10.2017 23:00:00 12,0 11,3 - - 22 12 - - Z 995,4 15 0,6
19.10.2017 22:00:00 12,1 11,4 - - 18 10 46 25 ZZW 995,5 8 1,4
19.10.2017 21:00:00 12,7 11,8 - - 31 17 57 31 Z 995,2 6 2,6
19.10.2017 20:00:00 13,1 11,6 - - 37 20 55 30 ZZO 994,5 12 0,0
19.10.2017 19:00:00 13,1 11,8 - - 37 20 55 30 ZZO 994,5 19 0,4
19.10.2017 18:00:00 13,6 11,7 - - 39 21 61 33 ZZO 994,4 15 0,0
19.10.2017 17:00:00 13,7 11,8 - - 48 26 67 36 ZZO 994,5 18 0,8
19.10.2017 16:00:00 12,6 11,5 - - 41 22 72 39 Z 994,7 5 0,6
19.10.2017 15:00:00 13,1 11,7 - - 50 27 68 37 ZZO 994,8 2,8 0,2
19.10.2017 14:00:00 13,9 11,7 - - 48 26 72 39 ZZO 995,1 12 0,0
19.10.2017 13:00:00 13,8 11,7 - - 41 22 68 37 ZZO 995,6 19 0,0
19.10.2017 12:00:00 13,8 11,2 - - 46 25 63 34 ZZO 995,9 18 0,0
19.10.2017 11:00:00 13,4 11,4 - - 42 23 65 35 ZZO 996,2 20 0,0
19.10.2017 10:00:00 13,5 11,1 11,0 11,7 46 25 65 35 ZZO 996,6 21 0,0
19.10.2017 09:00:00 13,0 11,2 - - 41 22 55 30 ZZO 996,6 19 0,2
19.10.2017 08:00:00 12,9 11,2 - - 42 23 59 32 ZZO 996,6 20 0,0
19.10.2017 07:00:00 12,3 11,4 - - 39 21 57 31 ZZO 996,9 19 0,0
19.10.2017 06:00:00 12,0 11,1 - - 41 22 65 35 ZZO 997,3 15 0,4
19.10.2017 05:00:00 11,8 10,8 - - 50 27 70 38 ZZO 997,7 4,9 0,4
19.10.2017 04:00:00 11,8 10,3 - - 50 27 67 36 ZZO 998,6 6 0,0
19.10.2017 03:00:00 11,3 9,6 - - 52 28 74 40 ZZO 999,5 9 0,2
19.10.2017 02:00:00 11,1 9,2 - - 50 27 70 38 ZO 1000,1 4,8 0,2
19.10.2017 01:00:00 11,3 8,6 - - 44 24 61 33 ZO 1000,9 23 0,0
19.10.2017 00:00:00 11,6 7,8 - - 41 22 59 32 ZO 1002,0 26 0,0
18.10.2017 23:00:00 11,4 8,0 - - 34 18 55 30 ZO 1003,2 28 0,0
18.10.2017 22:00:00 11,3 7,8 - - 42 23 54 29 ZO 1004,2 28 0,0
18.10.2017 21:00:00 11,2 7,9 - - 37 20 52 28 ZO 1005,2 30 0,0
18.10.2017 20:00:00 11,3 7,7 - - 35 19 48 26 ZO 1006,0 30 0,0
18.10.2017 19:00:00 11,3 8,2 - - 34 18 46 25 ZO 1006,6 28 0,0
18.10.2017 18:00:00 11,3 7,9 - - 29 16 46 25 ZO 1007,3 29 0,0
18.10.2017 17:00:00 11,4 8,0 - - 34 18 48 26 ZO 1008,1 30 0,0
18.10.2017 16:00:00 11,6 7,7 - - 31 17 - - ZO 1008,9 30 0,0
18.10.2017 15:00:00 11,6 7,7 - - 37 20 50 27 ZO 1009,6 30 0,0
18.10.2017 14:00:00 11,5 7,9 - - 29 16 - - ZZO 1010,5 26 0,0
18.10.2017 13:00:00 11,4 7,8 - - 28 15 - - ZO 1011,0 30 0,0
18.10.2017 12:00:00 11,2 8,0 - - 37 20 52 28 ZO 1011,6 29 0,0
18.10.2017 11:00:00 11,2 7,9 - - 31 17 - - ZO 1011,8 30 0,0
18.10.2017 10:00:00 10,5 8,4 11,2 11,9 29 16 - - ZO 1012,3 25 0,0
18.10.2017 09:00:00 10,1 7,9 - - 28 15 - - OZO 1012,5 26 0,0
18.10.2017 08:00:00 9,3 8,6 - - 22 12 - - OZO 1012,6 9 0,0
18.10.2017 07:00:00 9,9 8,2 - - 22 12 - - ZO 1012,8 27 0,0
18.10.2017 06:00:00 9,7 7,5 - - 11 6 - - O 1013,0 25 0,0
18.10.2017 05:00:00 9,1 7,6 - - 13 7 - - OZO 1013,5 25 0,0
18.10.2017 04:00:00 9,2 8,2 - - 11 6 - - OZO 1014,1 6 0,0
18.10.2017 03:00:00 8,6 7,5 - - 11 6 - - OZO 1014,3 26 0,0
18.10.2017 02:00:00 9,4 7,4 - - 16 9 - - O 1014,6 23 0,0
18.10.2017 01:00:00 10,0 6,6 - - 21 11 - - O 1015,1 22 0,0
18.10.2017 00:00:00 8,8 6,9 - - 15 8 - - NO 1015,3 24 0,0
17.10.2017 23:00:00 7,7 5,9 - - 16 9 - - NNO 1015,2 23 0,0
17.10.2017 22:00:00 8,2 6,0 - - 16 9 - - NNO 1015,3 22 0,0
17.10.2017 21:00:00 8,7 6,7 - - 15 8 - - NNO 1015,3 20 0,0
17.10.2017 20:00:00 9,1 7,5 - - 15 8 - - NO 1015,2 13 0,0
17.10.2017 19:00:00 9,0 7,2 - - 16 9 - - NO 1014,7 19 0,0
17.10.2017 18:00:00 10,1 7,7 - - 22 12 - - NNO 1014,1 17 0,0
17.10.2017 17:00:00 10,6 8,2 - - 22 12 - - NNO 1013,5 16 0,0
17.10.2017 16:00:00 11,3 8,6 - - 29 16 - - NNO 1012,9 22 0,0
17.10.2017 15:00:00 10,4 8,8 - - 31 17 - - NNO 1012,4 11 0,0
17.10.2017 14:00:00 11,5 9,3 - - 31 17 - - NNO 1011,2 25 0,0
17.10.2017 13:00:00 11,2 8,5 - - 34 18 48 26 NNO 1010,0 23 0,0
17.10.2017 12:00:00 10,9 9,0 - - 37 20 50 27 N 1008,4 20 0,0
17.10.2017 11:00:00 10,4 9,0 - - 39 21 57 31 N 1006,7 19 0,0
17.10.2017 10:00:00 10,4 9,0 11,4 11,9 37 20 59 32 N 1005,0 17 0,0
17.10.2017 09:00:00 10,5 9,1 - - 42 23 57 31 N 1002,8 17 0,0
17.10.2017 08:00:00 10,5 9,8 - - 37 20 57 31 N 1000,8 12 0,2
17.10.2017 07:00:00 10,7 10,3 - - 34 18 50 27 N 998,4 2,5 0,0
17.10.2017 06:00:00 11,5 10,5 - - 29 16 - - NNW 996,1 17 0,0
17.10.2017 05:00:00 11,5 10,6 - - 24 13 - - N 993,5 17 0,0
17.10.2017 04:00:00 12,0 11,2 - - 22 12 - - NNW 991,6 12 0,0
17.10.2017 03:00:00 12,0 11,1 - - 24 13 - - NNW 989,7 18 0,0
17.10.2017 02:00:00 11,7 11,1 - - 28 15 - - NNO 987,4 15 0,0
17.10.2017 01:00:00 12,0 11,1 - - 37 20 57 31 NO 986,0 19 0,4
17.10.2017 00:00:00 12,1 11,5 - - 46 25 55 30 NO 985,7 6 1,4
16.10.2017 23:00:00 11,8 11,1 - - 44 24 57 31 ONO 986,3 7 1,8
16.10.2017 22:00:00 11,9 11,1 - - 46 25 57 31 ONO 986,9 3,1 2,6
16.10.2017 21:00:00 11,9 10,9 - - 50 27 63 34 ONO 988,1 4,2 3,0
16.10.2017 20:00:00 11,7 10,7 - - 44 24 59 32 ONO 989,5 5 3,0
16.10.2017 19:00:00 11,6 10,6 - - 50 27 61 33 O 991,5 4,1 1,8
16.10.2017 18:00:00 12,3 10,0 - - 44 24 59 32 O 993,1 20 0,0
16.10.2017 17:00:00 12,2 9,7 - - 48 26 61 33 O 995,4 21 0,0
16.10.2017 16:00:00 11,2 9,1 - - 42 23 65 35 ONO 997,4 27 0,0
16.10.2017 15:00:00 10,1 8,1 - - 59 32 76 41 O 999,6 8 0,4
16.10.2017 14:00:00 10,2 7,5 - - 57 31 68 37 ONO 1002,0 27 0,0
16.10.2017 13:00:00 9,9 7,2 - - 46 25 67 36 ONO 1005,3 27 0,0
16.10.2017 12:00:00 9,7 6,9 - - 44 24 55 30 O 1007,3 26 0,2
16.10.2017 11:00:00 9,5 6,8 - - 29 16 - - O 1010,0 24 1,0
16.10.2017 10:00:00 9,1 7,7 11,7 11,9 22 12 - - O 1010,9 7 0,8
16.10.2017 09:00:00 10,0 8,1 - - 16 9 - - ZO 1012,7 15 0,0
16.10.2017 08:00:00 9,1 8,0 - - 8 4 - - OZO 1011,5 26 0,0
16.10.2017 07:00:00 9,0 7,8 - - 9 5 - - OZO 1012,4 25 0,0
16.10.2017 06:00:00 8,6 7,3 - - 9 5 - - Z 1013,0 26 0,0
16.10.2017 05:00:00 8,6 7,3 - - 11 6 - - N 1013,2 26 0,0

tt = temperatuur
td = dauwpunt
tt -20cm = temperatuur -20cm
tt -100cm = temperatuur -100cm
ff = windsnelheid
fx = windstoten
dd = windrichting
ppp = luchtdruk
vv = zicht
rr = neerslag

Weerstations in de omgeving